User: anonymous
Location: Unspecified
(0.0000°N, 0.0000°E)
Time: 04:22:50
(UTC+00:00)
Language:

ELEKTRO-L - Orbit

View from above orbital plane
View from above orbital plane
View from above satellite
View from above satellite

Ground track
Ground track

The orbit data is extracted from the following two-line orbital elements,

1 37344U 11001A   14204.08745866 -.00000113  00000-0  00000+0 0    85
2 37344 000.2971 079.8043 0001056 104.3484 223.8868 01.00268820 12882
Epoch (UTC): 23 July 2014 02:05:56
Eccentricity: 0.0001056
inclination: 0.2971°
perigee height: 35782 km
apogee height: 35791 km
right ascension of ascending node: 79.8043°
argument of perigee: 104.3484°
revolutions per day: 1.00268820
mean anomaly at epoch: 223.8868°
orbit number at epoch: 1288

The dashed part of the orbit path shows where the satellite is in the earth's shadow,  

DLR